Time,TemperatureF,DewpointF,PressureIn,WindDirection,WindDirectionDegrees,WindSpeedMPH,WindSpeedGustMPH,Humidity,HourlyPrecipIn,Conditions,Clouds,dailyrainin,SoftwareType,DateUTC
2013-02-18 00:02:00,16.4,9.3,30.01,South,173,1.0,7.0,73,0.00,,,0.00,HR-IXPWINDi_r2_v1.2.,2013-02-18 06:02:00,
2013-02-18 00:07:00,16.6,9.8,30.01,SSE,159,2.0,7.0,74,0.00,,,0.00,HR-IXPWINDi_r2_v1.2.,2013-02-18 06:07:00,
2013-02-18 00:12:00,16.8,9.7,30.01,SSE,149,1.0,8.0,73,0.00,,,0.00,HR-IXPWINDi_r2_v1.2.,2013-02-18 06:12:00,
2013-02-18 00:17:00,16.9,10.1,30.00,ESE,114,2.0,8.0,74,0.00,,,0.00,HR-IXPWINDi_r2_v1.2.,2013-02-18 06:17:00,
2013-02-18 00:22:00,17.0,10.2,30.00,SSE,166,0.0,9.0,74,0.00,,,0.00,HR-IXPWINDi_r2_v1.2.,2013-02-18 06:22:00,
2013-02-18 00:27:00,17.1,10.3,30.00,SSE,161,1.0,9.0,74,0.00,,,0.00,HR-IXPWINDi_r2_v1.2.,2013-02-18 06:27:00,
2013-02-18 00:32:00,17.2,10.7,29.99,SSE,162,1.0,7.0,75,0.00,,,0.00,HR-IXPWINDi_r2_v1.2.,2013-02-18 06:32:00,
2013-02-18 00:38:00,17.4,10.9,29.99,SSE,151,1.0,6.0,75,0.00,,,0.00,HR-IXPWINDi_r2_v1.2.,2013-02-18 06:38:00,
2013-02-18 00:43:00,17.4,10.9,29.99,SSE,150,4.0,6.0,75,0.00,,,0.00,HR-IXPWINDi_r2_v1.2.,2013-02-18 06:43:00,
2013-02-18 00:48:00,17.5,11.0,29.99,SSE,157,4.0,7.0,75,0.00,,,0.00,HR-IXPWINDi_r2_v1.2.,2013-02-18 06:48:00,
2013-02-18 00:53:00,17.6,11.4,29.98,SSE,162,2.0,7.0,76,0.00,,,0.00,HR-IXPWINDi_r2_v1.2.,2013-02-18 06:53:00,
2013-02-18 00:58:00,17.9,11.7,29.98,SSE,147,2.0,7.0,76,0.00,,,0.00,HR-IXPWINDi_r2_v1.2.,2013-02-18 06:58:00,
2013-02-18 01:04:00,18.1,11.9,29.98,SSE,153,1.0,8.0,76,0.00,,,0.00,HR-IXPWINDi_r2_v1.2.,2013-02-18 07:04:00,
2013-02-18 01:09:00,18.2,11.7,29.98,SSE,150,2.0,8.0,75,0.00,,,0.00,HR-IXPWINDi_r2_v1.2.,2013-02-18 07:09:00,
2013-02-18 01:14:00,18.2,11.7,29.97,SSE,166,2.0,7.0,75,0.00,,,0.00,HR-IXPWINDi_r2_v1.2.,2013-02-18 07:14:00,
2013-02-18 01:19:00,18.3,12.1,29.96,SE,132,4.0,8.0,76,0.00,,,0.00,HR-IXPWINDi_r2_v1.2.,2013-02-18 07:19:00,
2013-02-18 01:24:00,18.3,12.1,29.96,SSE,158,4.0,8.0,76,0.00,,,0.00,HR-IXPWINDi_r2_v1.2.,2013-02-18 07:24:00,
2013-02-18 01:29:00,18.2,12.0,29.96,SSE,148,7.0,7.0,76,0.00,,,0.00,HR-IXPWINDi_r2_v1.2.,2013-02-18 07:29:00,
2013-02-18 01:35:00,18.2,12.0,29.95,SSE,153,5.0,7.0,76,0.00,,,0.00,HR-IXPWINDi_r2_v1.2.,2013-02-18 07:35:00,
2013-02-18 01:40:00,18.2,12.0,29.95,South,180,5.0,8.0,76,0.00,,,0.00,HR-IXPWINDi_r2_v1.2.,2013-02-18 07:40:00,
2013-02-18 01:45:00,18.4,12.1,29.95,SSE,151,5.0,9.0,76,0.00,,,0.00,HR-IXPWINDi_r2_v1.2.,2013-02-18 07:45:00,
2013-02-18 01:50:00,18.5,11.9,29.94,SSE,159,2.0,12.0,75,0.00,,,0.00,HR-IXPWINDi_r2_v1.2.,2013-02-18 07:50:00,
2013-02-18 01:55:00,18.5,12.2,29.94,SSE,153,2.0,12.0,76,0.00,,,0.00,HR-IXPWINDi_r2_v1.2.,2013-02-18 07:55:00,
2013-02-18 02:00:00,18.6,12.3,29.94,SSE,160,2.0,9.0,76,0.00,,,0.00,HR-IXPWINDi_r2_v1.2.,2013-02-18 08:00:00,
2013-02-18 02:05:00,18.6,12.3,29.93,SSE,166,2.0,9.0,76,0.00,,,0.00,HR-IXPWINDi_r2_v1.2.,2013-02-18 08:05:00,
2013-02-18 02:10:00,18.6,12.3,29.93,SSE,154,2.0,8.0,76,0.00,,,0.00,HR-IXPWINDi_r2_v1.2.,2013-02-18 08:10:00,
2013-02-18 02:15:00,18.6,12.3,29.93,SSE,150,4.0,8.0,76,0.00,,,0.00,HR-IXPWINDi_r2_v1.2.,2013-02-18 08:15:00,
2013-02-18 02:20:00,18.5,12.2,29.92,SSE,160,7.0,8.0,76,0.00,,,0.00,HR-IXPWINDi_r2_v1.2.,2013-02-18 08:20:00,
2013-02-18 02:25:00,18.5,12.2,29.92,SSE,167,6.0,8.0,76,0.00,,,0.00,HR-IXPWINDi_r2_v1.2.,2013-02-18 08:25:00,
2013-02-18 02:31:00,18.5,12.2,29.91,SSE,155,4.0,9.0,76,0.00,,,0.00,HR-IXPWINDi_r2_v1.2.,2013-02-18 08:31:00,
2013-02-18 02:36:00,18.5,12.2,29.91,SE,136,5.0,9.0,76,0.00,,,0.00,HR-IXPWINDi_r2_v1.2.,2013-02-18 08:36:00,
2013-02-18 02:41:00,18.4,12.1,29.90,SSE,159,2.0,10.0,76,0.00,,,0.00,HR-IXPWINDi_r2_v1.2.,2013-02-18 08:41:00,
2013-02-18 02:46:00,18.4,12.1,29.90,SSE,157,5.0,10.0,76,0.00,,,0.00,HR-IXPWINDi_r2_v1.2.,2013-02-18 08:46:00,
2013-02-18 02:52:00,18.3,12.1,29.89,SE,142,9.0,11.0,76,0.00,,,0.00,HR-IXPWINDi_r2_v1.2.,2013-02-18 08:52:00,
2013-02-18 02:57:00,18.2,12.0,29.89,SE,146,1.0,11.0,76,0.00,,,0.00,HR-IXPWINDi_r2_v1.2.,2013-02-18 08:57:00,
2013-02-18 03:02:00,18.2,12.0,29.89,SSE,158,5.0,9.0,76,0.00,,,0.00,HR-IXPWINDi_r2_v1.2.,2013-02-18 09:02:00,
2013-02-18 03:07:00,18.2,12.2,29.88,SE,125,5.0,9.0,77,0.00,,,0.00,HR-IXPWINDi_r2_v1.2.,2013-02-18 09:07:00,
2013-02-18 03:13:00,18.3,12.3,29.88,South,180,2.0,9.0,77,0.00,,,0.00,HR-IXPWINDi_r2_v1.2.,2013-02-18 09:13:00,
2013-02-18 03:18:00,18.3,12.3,29.88,SSE,149,5.0,9.0,77,0.00,,,0.00,HR-IXPWINDi_r2_v1.2.,2013-02-18 09:18:00,
2013-02-18 03:23:00,18.4,12.4,29.87,SE,135,7.0,9.0,77,0.00,,,0.00,HR-IXPWINDi_r2_v1.2.,2013-02-18 09:23:00,
2013-02-18 03:28:00,18.5,12.5,29.86,SSE,165,7.0,11.0,77,0.00,,,0.00,HR-IXPWINDi_r2_v1.2.,2013-02-18 09:28:00,
2013-02-18 03:34:00,18.5,12.5,29.86,SSE,152,2.0,11.0,77,0.00,,,0.00,HR-IXPWINDi_r2_v1.2.,2013-02-18 09:34:00,
2013-02-18 03:39:00,18.7,12.7,29.86,SE,144,8.0,10.0,77,0.00,,,0.00,HR-IXPWINDi_r2_v1.2.,2013-02-18 09:39:00,
2013-02-18 03:44:00,18.8,12.8,29.86,SE,132,8.0,13.0,77,0.00,,,0.00,HR-IXPWINDi_r2_v1.2.,2013-02-18 09:44:00,
2013-02-18 03:49:00,18.9,12.9,29.85,SE,144,1.0,13.0,77,0.00,,,0.00,HR-IXPWINDi_r2_v1.2.,2013-02-18 09:49:00,
2013-02-18 03:55:00,19.0,13.3,29.85,SSE,157,0.0,9.0,78,0.00,,,0.00,HR-IXPWINDi_r2_v1.2.,2013-02-18 09:55:00,
2013-02-18 04:00:00,19.1,13.4,29.85,SE,136,5.0,9.0,78,0.00,,,0.00,HR-IXPWINDi_r2_v1.2.,2013-02-18 10:00:00,
2013-02-18 04:05:00,19.1,13.4,29.85,SSE,162,1.0,7.0,78,0.00,,,0.00,HR-IXPWINDi_r2_v1.2.,2013-02-18 10:05:00,
2013-02-18 04:10:00,19.3,13.6,29.85,SSE,148,4.0,8.0,78,0.00,,,0.00,HR-IXPWINDi_r2_v1.2.,2013-02-18 10:10:00,
2013-02-18 04:15:00,19.4,13.7,29.84,SE,134,4.0,8.0,78,0.00,,,0.00,HR-IXPWINDi_r2_v1.2.,2013-02-18 10:15:00,
2013-02-18 04:21:00,19.5,13.8,29.84,SSE,158,6.0,9.0,78,0.00,,,0.00,HR-IXPWINDi_r2_v1.2.,2013-02-18 10:21:00,
2013-02-18 04:26:00,19.6,13.9,29.84,SE,140,6.0,9.0,78,0.00,,,0.00,HR-IXPWINDi_r2_v1.2.,2013-02-18 10:26:00,
2013-02-18 04:31:00,19.7,14.3,29.84,SSE,154,4.0,8.0,79,0.00,,,0.00,HR-IXPWINDi_r2_v1.2.,2013-02-18 10:31:00,
2013-02-18 04:36:00,19.8,14.4,29.84,SE,134,2.0,8.0,79,0.00,,,0.00,HR-IXPWINDi_r2_v1.2.,2013-02-18 10:36:00,
2013-02-18 04:41:00,19.9,14.5,29.83,SSE,163,5.0,8.0,79,0.00,,,0.00,HR-IXPWINDi_r2_v1.2.,2013-02-18 10:41:00,
2013-02-18 04:47:00,20.0,14.6,29.83,SE,134,5.0,8.0,79,0.00,,,0.00,HR-IXPWINDi_r2_v1.2.,2013-02-18 10:47:00,
2013-02-18 04:52:00,20.1,14.7,29.84,SE,136,1.0,8.0,79,0.00,,,0.00,HR-IXPWINDi_r2_v1.2.,2013-02-18 10:52:00,
2013-02-18 04:57:00,20.3,14.9,29.83,SSE,155,2.0,9.0,79,0.00,,,0.00,HR-IXPWINDi_r2_v1.2.,2013-02-18 10:57:00,
2013-02-18 05:02:00,20.4,15.0,29.83,SSE,163,1.0,9.0,79,0.00,,,0.00,HR-IXPWINDi_r2_v1.2.,2013-02-18 11:02:00,
2013-02-18 05:07:00,20.4,15.0,29.83,SSE,165,5.0,8.0,79,0.00,,,0.00,HR-IXPWINDi_r2_v1.2.,2013-02-18 11:07:00,
2013-02-18 05:13:00,20.5,15.1,29.82,East,85,4.0,7.0,79,0.00,,,0.00,HR-IXPWINDi_r2_v1.2.,2013-02-18 11:13:00,
2013-02-18 05:18:00,20.5,15.1,29.82,SSE,159,2.0,7.0,79,0.00,,,0.00,HR-IXPWINDi_r2_v1.2.,2013-02-18 11:18:00,
2013-02-18 05:23:00,20.5,15.1,29.82,SE,144,5.0,7.0,79,0.00,,,0.00,HR-IXPWINDi_r2_v1.2.,2013-02-18 11:23:00,
2013-02-18 05:28:00,20.6,15.2,29.81,SSE,155,6.0,7.0,79,0.00,,,0.00,HR-IXPWINDi_r2_v1.2.,2013-02-18 11:28:00,
2013-02-18 05:33:00,20.6,15.2,29.81,SSE,155,2.0,7.0,79,0.00,,,0.00,HR-IXPWINDi_r2_v1.2.,2013-02-18 11:33:00,
2013-02-18 05:38:00,20.6,15.2,29.81,SSE,158,1.0,7.0,79,0.00,,,0.00,HR-IXPWINDi_r2_v1.2.,2013-02-18 11:38:00,
2013-02-18 05:44:00,20.6,15.4,29.81,SE,138,5.0,8.0,80,0.00,,,0.00,HR-IXPWINDi_r2_v1.2.,2013-02-18 11:44:00,
2013-02-18 05:49:00,20.6,15.4,29.81,SSE,152,4.0,8.0,80,0.00,,,0.00,HR-IXPWINDi_r2_v1.2.,2013-02-18 11:49:00,
2013-02-18 05:54:00,20.6,15.4,29.81,SSE,149,5.0,7.0,80,0.00,,,0.00,HR-IXPWINDi_r2_v1.2.,2013-02-18 11:54:00,
2013-02-18 05:59:00,20.6,15.4,29.80,SSE,152,4.0,8.0,80,0.00,,,0.00,HR-IXPWINDi_r2_v1.2.,2013-02-18 11:59:00,
2013-02-18 06:04:00,20.6,15.4,29.80,SSE,157,1.0,8.0,80,0.00,,,0.00,HR-IXPWINDi_r2_v1.2.,2013-02-18 12:04:00,
2013-02-18 06:09:00,20.6,15.4,29.79,SE,131,2.0,8.0,80,0.00,,,0.00,HR-IXPWINDi_r2_v1.2.,2013-02-18 12:09:00,
2013-02-18 06:14:00,20.5,15.6,29.79,SSE,153,4.0,7.0,81,0.00,,,0.00,HR-IXPWINDi_r2_v1.2.,2013-02-18 12:14:00,
2013-02-18 06:19:00,20.5,15.6,29.79,SE,144,4.0,7.0,81,0.00,,,0.00,HR-IXPWINDi_r2_v1.2.,2013-02-18 12:19:00,
2013-02-18 06:25:00,20.6,15.7,29.78,SE,144,4.0,8.0,81,0.00,,,0.00,HR-IXPWINDi_r2_v1.2.,2013-02-18 12:25:00,
2013-02-18 06:30:00,20.6,15.7,29.78,SE,144,1.0,8.0,81,0.00,,,0.00,HR-IXPWINDi_r2_v1.2.,2013-02-18 12:30:00,
2013-02-18 06:35:00,20.6,15.7,29.78,South,169,5.0,8.0,81,0.00,,,0.00,HR-IXPWINDi_r2_v1.2.,2013-02-18 12:35:00,
2013-02-18 06:40:00,20.6,16.0,29.78,SSE,167,1.0,7.0,82,0.00,,,0.00,HR-IXPWINDi_r2_v1.2.,2013-02-18 12:40:00,
2013-02-18 06:45:00,20.7,16.1,29.78,South,169,1.0,7.0,82,0.00,,,0.00,HR-IXPWINDi_r2_v1.2.,2013-02-18 12:45:00,
2013-02-18 06:51:00,20.7,16.1,29.77,SE,146,5.0,9.0,82,0.00,,,0.00,HR-IXPWINDi_r2_v1.2.,2013-02-18 12:51:00,
2013-02-18 06:56:00,20.8,16.2,29.76,ESE,121,5.0,9.0,82,0.00,,,0.00,HR-IXPWINDi_r2_v1.2.,2013-02-18 12:56:00,
2013-02-18 07:01:00,20.8,16.5,29.76,SE,124,6.0,7.0,83,0.00,,,0.00,HR-IXPWINDi_r2_v1.2.,2013-02-18 13:01:00,
2013-02-18 07:06:00,20.9,16.6,29.75,SE,146,4.0,8.0,83,0.00,,,0.00,HR-IXPWINDi_r2_v1.2.,2013-02-18 13:06:00,
2013-02-18 07:11:00,21.1,16.8,29.76,South,173,2.0,8.0,83,0.00,,,0.00,HR-IXPWINDi_r2_v1.2.,2013-02-18 13:11:00,
2013-02-18 07:16:00,21.2,16.9,29.75,SE,138,2.0,8.0,83,0.00,,,0.00,HR-IXPWINDi_r2_v1.2.,2013-02-18 13:16:00,
2013-02-18 07:22:00,21.3,17.0,29.75,SSE,150,4.0,6.0,83,0.00,,,0.00,HR-IXPWINDi_r2_v1.2.,2013-02-18 13:22:00,
2013-02-18 07:27:00,21.4,17.1,29.75,SSE,150,1.0,6.0,83,0.00,,,0.00,HR-IXPWINDi_r2_v1.2.,2013-02-18 13:27:00,
2013-02-18 07:32:00,21.5,17.4,29.75,SE,136,5.0,7.0,84,0.00,,,0.00,HR-IXPWINDi_r2_v1.2.,2013-02-18 13:32:00,
2013-02-18 07:37:00,21.6,17.5,29.74,SSE,150,1.0,7.0,84,0.00,,,0.00,HR-IXPWINDi_r2_v1.2.,2013-02-18 13:37:00,
2013-02-18 07:42:00,21.7,17.6,29.74,SSE,157,1.0,9.0,84,0.00,,,0.00,HR-IXPWINDi_r2_v1.2.,2013-02-18 13:42:00,
2013-02-18 07:48:00,21.8,17.7,29.74,SE,141,2.0,9.0,84,0.00,,,0.00,HR-IXPWINDi_r2_v1.2.,2013-02-18 13:48:00,
2013-02-18 07:53:00,21.9,17.8,29.74,SSE,158,5.0,7.0,84,0.00,,,0.00,HR-IXPWINDi_r2_v1.2.,2013-02-18 13:53:00,
2013-02-18 07:58:00,22.1,18.0,29.74,SE,142,4.0,7.0,84,0.00,,,0.00,HR-IXPWINDi_r2_v1.2.,2013-02-18 13:58:00,
2013-02-18 08:03:00,22.2,18.1,29.74,SSE,148,1.0,7.0,84,0.00,,,0.00,HR-IXPWINDi_r2_v1.2.,2013-02-18 14:03:00,
2013-02-18 08:08:00,22.3,18.2,29.73,SE,139,2.0,8.0,84,0.00,,,0.00,HR-IXPWINDi_r2_v1.2.,2013-02-18 14:08:00,
2013-02-18 08:13:00,22.5,18.4,29.73,SE,132,1.0,8.0,84,0.00,,,0.00,HR-IXPWINDi_r2_v1.2.,2013-02-18 14:13:00,
2013-02-18 08:19:00,22.6,18.5,29.73,SE,140,4.0,6.0,84,0.00,,,0.00,HR-IXPWINDi_r2_v1.2.,2013-02-18 14:19:00,
2013-02-18 08:24:00,22.8,18.7,29.73,SSE,150,1.0,6.0,84,0.00,,,0.00,HR-IXPWINDi_r2_v1.2.,2013-02-18 14:24:00,
2013-02-18 08:29:00,23.0,18.6,29.73,SSE,148,0.0,6.0,83,0.00,,,0.00,HR-IXPWINDi_r2_v1.2.,2013-02-18 14:29:00,
2013-02-18 08:34:00,23.2,18.8,29.72,SE,144,5.0,7.0,83,0.00,,,0.00,HR-IXPWINDi_r2_v1.2.,2013-02-18 14:34:00,
2013-02-18 08:39:00,23.4,19.0,29.72,South,172,4.0,7.0,83,0.00,,,0.00,HR-IXPWINDi_r2_v1.2.,2013-02-18 14:39:00,
2013-02-18 08:44:00,23.8,19.4,29.72,South,169,2.0,6.0,83,0.00,,,0.00,HR-IXPWINDi_r2_v1.2.,2013-02-18 14:44:00,
2013-02-18 08:49:00,24.1,19.4,29.71,SSE,155,2.0,7.0,82,0.00,,,0.00,HR-IXPWINDi_r2_v1.2.,2013-02-18 14:49:00,
2013-02-18 08:55:00,24.3,19.6,29.71,SSE,156,4.0,7.0,82,0.00,,,0.00,HR-IXPWINDi_r2_v1.2.,2013-02-18 14:55:00,
2013-02-18 09:00:00,24.4,19.7,29.71,SSE,153,1.0,8.0,82,0.00,,,0.00,HR-IXPWINDi_r2_v1.2.,2013-02-18 15:00:00,
2013-02-18 09:05:00,24.7,20.0,29.71,SSE,157,2.0,8.0,82,0.00,,,0.00,HR-IXPWINDi_r2_v1.2.,2013-02-18 15:05:00,
2013-02-18 09:10:00,24.9,20.2,29.71,SSE,151,1.0,6.0,82,0.00,,,0.00,HR-IXPWINDi_r2_v1.2.,2013-02-18 15:10:00,
2013-02-18 09:16:00,25.1,20.1,29.71,SSE,155,7.0,7.0,81,0.00,,,0.00,HR-IXPWINDi_r2_v1.2.,2013-02-18 15:16:00,
2013-02-18 09:21:00,25.5,20.5,29.71,SSE,153,1.0,8.0,81,0.00,,,0.00,HR-IXPWINDi_r2_v1.2.,2013-02-18 15:21:00,
2013-02-18 09:26:00,25.7,20.7,29.70,SSE,159,4.0,8.0,81,0.00,,,0.00,HR-IXPWINDi_r2_v1.2.,2013-02-18 15:26:00,
2013-02-18 09:31:00,25.9,20.9,29.69,SE,139,4.0,9.0,81,0.00,,,0.00,HR-IXPWINDi_r2_v1.2.,2013-02-18 15:31:00,
2013-02-18 09:36:00,26.1,21.1,29.70,SSE,160,7.0,9.0,81,0.00,,,0.00,HR-IXPWINDi_r2_v1.2.,2013-02-18 15:36:00,
2013-02-18 09:41:00,26.2,21.2,29.69,SSE,163,2.0,8.0,81,0.00,,,0.00,HR-IXPWINDi_r2_v1.2.,2013-02-18 15:41:00,
2013-02-18 09:47:00,26.4,21.1,29.69,SSE,161,1.0,8.0,80,0.00,,,0.00,HR-IXPWINDi_r2_v1.2.,2013-02-18 15:47:00,
2013-02-18 09:52:00,26.6,21.3,29.69,SSE,160,8.0,11.0,80,0.00,,,0.00,HR-IXPWINDi_r2_v1.2.,2013-02-18 15:52:00,
2013-02-18 09:57:00,26.7,21.7,29.68,South,177,4.0,11.0,81,0.00,,,0.00,HR-IXPWINDi_r2_v1.2.,2013-02-18 15:57:00,
2013-02-18 10:02:00,26.8,21.8,29.68,South,171,5.0,11.0,81,0.00,,,0.00,HR-IXPWINDi_r2_v1.2.,2013-02-18 16:02:00,
2013-02-18 10:07:00,27.0,22.0,29.68,SSE,151,2.0,9.0,81,0.00,,,0.00,HR-IXPWINDi_r2_v1.2.,2013-02-18 16:07:00,
2013-02-18 10:13:00,27.2,21.9,29.68,SSE,163,0.0,8.0,80,0.00,,,0.00,HR-IXPWINDi_r2_v1.2.,2013-02-18 16:13:00,
2013-02-18 10:18:00,27.4,22.0,29.67,South,175,1.0,8.0,80,0.00,,,0.00,HR-IXPWINDi_r2_v1.2.,2013-02-18 16:18:00,
2013-02-18 10:23:00,27.6,22.2,29.67,SSE,167,4.0,8.0,80,0.00,,,0.00,HR-IXPWINDi_r2_v1.2.,2013-02-18 16:23:00,
2013-02-18 10:28:00,27.7,22.0,29.66,SSE,166,0.0,5.0,79,0.00,,,0.00,HR-IXPWINDi_r2_v1.2.,2013-02-18 16:28:00,
2013-02-18 10:33:00,27.8,22.4,29.66,SSE,161,1.0,5.0,80,0.00,,,0.00,HR-IXPWINDi_r2_v1.2.,2013-02-18 16:33:00,
2013-02-18 10:39:00,27.8,22.4,29.66,SSE,157,1.0,4.0,80,0.00,,,0.00,HR-IXPWINDi_r2_v1.2.,2013-02-18 16:39:00,
2013-02-18 10:44:00,28.0,22.6,29.65,SSE,152,1.0,6.0,80,0.00,,,0.00,HR-IXPWINDi_r2_v1.2.,2013-02-18 16:44:00,
2013-02-18 10:49:00,28.4,22.7,29.65,SSE,152,1.0,6.0,79,0.00,,,0.00,HR-IXPWINDi_r2_v1.2.,2013-02-18 16:49:00,
2013-02-18 10:54:00,28.6,22.9,29.65,SSE,160,4.0,9.0,79,0.00,,,0.00,HR-IXPWINDi_r2_v1.2.,2013-02-18 16:54:00,
2013-02-18 10:59:00,28.8,23.1,29.65,SSE,148,0.0,9.0,79,0.00,,,0.00,HR-IXPWINDi_r2_v1.2.,2013-02-18 16:59:00,
2013-02-18 11:04:00,29.3,23.6,29.65,SSE,159,2.0,6.0,79,0.00,,,0.00,HR-IXPWINDi_r2_v1.2.,2013-02-18 17:04:00,
2013-02-18 11:09:00,29.7,24.0,29.65,SSE,163,4.0,6.0,79,0.00,,,0.00,HR-IXPWINDi_r2_v1.2.,2013-02-18 17:09:00,
2013-02-18 11:15:00,30.0,24.3,29.65,South,171,2.0,5.0,79,0.00,,,0.00,HR-IXPWINDi_r2_v1.2.,2013-02-18 17:15:00,
2013-02-18 11:20:00,30.1,24.1,29.65,South,171,1.0,8.0,78,0.00,,,0.00,HR-IXPWINDi_r2_v1.2.,2013-02-18 17:20:00,
2013-02-18 11:25:00,30.4,24.7,29.65,South,171,1.0,8.0,79,0.00,,,0.00,HR-IXPWINDi_r2_v1.2.,2013-02-18 17:25:00,
2013-02-18 11:30:00,30.6,24.6,29.64,South,171,1.0,2.0,78,0.00,,,0.00,HR-IXPWINDi_r2_v1.2.,2013-02-18 17:30:00,
2013-02-18 11:35:00,30.7,24.6,29.64,South,171,1.0,4.0,78,0.00,,,0.00,HR-IXPWINDi_r2_v1.2.,2013-02-18 17:35:00,
2013-02-18 11:40:00,30.8,24.7,29.64,South,171,1.0,4.0,78,0.00,,,0.00,HR-IXPWINDi_r2_v1.2.,2013-02-18 17:40:00,
2013-02-18 11:45:00,30.9,24.8,29.64,South,171,1.0,2.0,78,0.00,,,0.00,HR-IXPWINDi_r2_v1.2.,2013-02-18 17:45:00,
2013-02-18 11:50:00,31.0,24.6,29.63,SSE,159,1.0,5.0,77,0.00,,,0.00,HR-IXPWINDi_r2_v1.2.,2013-02-18 17:50:00,
2013-02-18 11:55:00,31.3,25.2,29.63,SSE,159,0.0,5.0,78,0.00,,,0.00,HR-IXPWINDi_r2_v1.2.,2013-02-18 17:55:00,
2013-02-18 12:00:00,31.7,25.3,29.63,SSE,155,1.0,4.0,77,0.00,,,0.00,HR-IXPWINDi_r2_v1.2.,2013-02-18 18:00:00,
2013-02-18 12:06:00,32.0,25.3,29.63,SSE,157,0.0,5.0,76,0.00,,,0.00,HR-IXPWINDi_r2_v1.2.,2013-02-18 18:06:00,
2013-02-18 12:11:00,32.2,25.8,29.62,SSE,148,0.0,5.0,77,0.00,,,0.00,HR-IXPWINDi_r2_v1.2.,2013-02-18 18:11:00,
2013-02-18 12:16:00,32.4,26.0,29.61,SSE,148,1.0,4.0,77,0.00,,,0.00,HR-IXPWINDi_r2_v1.2.,2013-02-18 18:16:00,
2013-02-18 12:21:00,32.9,26.5,29.60,SSE,148,0.0,2.0,77,0.00,,,0.00,HR-IXPWINDi_r2_v1.2.,2013-02-18 18:21:00,
2013-02-18 12:26:00,33.8,27.7,29.60,SSE,148,0.0,1.0,78,0.00,,,0.00,HR-IXPWINDi_r2_v1.2.,2013-02-18 18:26:00,
2013-02-18 12:31:00,34.3,26.9,29.60,SSE,148,0.0,2.0,74,0.00,,,0.01,HR-IXPWINDi_r2_v1.2.,2013-02-18 18:31:00,
2013-02-18 12:36:00,34.3,27.2,29.60,SSE,148,0.0,2.0,75,0.00,,,0.01,HR-IXPWINDi_r2_v1.2.,2013-02-18 18:36:00,
2013-02-18 12:41:00,34.0,26.2,29.59,SSE,147,0.0,2.0,73,0.00,,,0.01,HR-IXPWINDi_r2_v1.2.,2013-02-18 18:41:00,
2013-02-18 12:47:00,34.0,27.5,29.59,SSE,147,0.0,2.0,77,0.00,,,0.01,HR-IXPWINDi_r2_v1.2.,2013-02-18 18:47:00,
2013-02-18 12:52:00,34.1,27.6,29.59,SSE,148,0.0,1.0,77,0.00,,,0.01,HR-IXPWINDi_r2_v1.2.,2013-02-18 18:52:00,
2013-02-18 12:57:00,33.8,26.7,29.60,SSE,148,1.0,2.0,75,0.00,,,0.01,HR-IXPWINDi_r2_v1.2.,2013-02-18 18:57:00,
2013-02-18 13:02:00,33.7,26.9,29.59,SSE,148,1.0,2.0,76,0.00,,,0.01,HR-IXPWINDi_r2_v1.2.,2013-02-18 19:02:00,
2013-02-18 13:07:00,33.7,26.6,29.59,SSE,148,1.0,2.0,75,0.00,,,0.01,HR-IXPWINDi_r2_v1.2.,2013-02-18 19:07:00,
2013-02-18 13:13:00,33.7,26.6,29.59,SSE,148,1.0,4.0,75,0.00,,,0.01,HR-IXPWINDi_r2_v1.2.,2013-02-18 19:13:00,
2013-02-18 13:18:00,33.6,26.8,29.58,SSE,149,1.0,4.0,76,0.00,,,0.01,HR-IXPWINDi_r2_v1.2.,2013-02-18 19:18:00,
2013-02-18 13:23:00,33.5,26.7,29.58,SE,138,1.0,7.0,76,0.00,,,0.01,HR-IXPWINDi_r2_v1.2.,2013-02-18 19:23:00,
2013-02-18 13:28:00,33.5,26.7,29.58,SE,138,0.0,7.0,76,0.00,,,0.01,HR-IXPWINDi_r2_v1.2.,2013-02-18 19:28:00,
2013-02-18 13:33:00,33.6,27.1,29.58,SSE,161,1.0,4.0,77,0.00,,,0.01,HR-IXPWINDi_r2_v1.2.,2013-02-18 19:33:00,
2013-02-18 13:38:00,33.6,26.8,29.58,SSE,150,0.0,5.0,76,0.00,,,0.01,HR-IXPWINDi_r2_v1.2.,2013-02-18 19:38:00,
2013-02-18 13:43:00,33.5,27.4,29.58,SSE,150,0.0,5.0,78,0.00,,,0.01,HR-IXPWINDi_r2_v1.2.,2013-02-18 19:43:00,
2013-02-18 13:49:00,33.4,27.3,29.57,SSE,150,0.0,2.0,78,0.00,,,0.01,HR-IXPWINDi_r2_v1.2.,2013-02-18 19:49:00,
2013-02-18 13:54:00,33.4,27.6,29.57,SSE,150,0.0,2.0,79,0.00,,,0.01,HR-IXPWINDi_r2_v1.2.,2013-02-18 19:54:00,
2013-02-18 13:59:00,33.4,27.6,29.57,SSE,150,0.0,2.0,79,0.00,,,0.01,HR-IXPWINDi_r2_v1.2.,2013-02-18 19:59:00,
2013-02-18 14:04:00,33.5,27.1,29.57,SSE,150,1.0,2.0,77,0.00,,,0.01,HR-IXPWINDi_r2_v1.2.,2013-02-18 20:04:00,
2013-02-18 14:09:00,33.6,27.5,29.57,SSE,150,1.0,2.0,78,0.00,,,0.01,HR-IXPWINDi_r2_v1.2.,2013-02-18 20:09:00,
2013-02-18 14:14:00,33.6,27.1,29.57,SSE,150,1.0,2.0,77,0.00,,,0.01,HR-IXPWINDi_r2_v1.2.,2013-02-18 20:14:00,
2013-02-18 14:20:00,33.7,27.6,29.57,SSE,150,0.0,2.0,78,0.00,,,0.01,HR-IXPWINDi_r2_v1.2.,2013-02-18 20:20:00,
2013-02-18 14:25:00,33.7,27.9,29.57,SSE,150,0.0,1.0,79,0.00,,,0.01,HR-IXPWINDi_r2_v1.2.,2013-02-18 20:25:00,
2013-02-18 14:30:00,33.7,27.6,29.56,SSE,150,0.0,1.0,78,0.00,,,0.01,HR-IXPWINDi_r2_v1.2.,2013-02-18 20:30:00,
2013-02-18 14:36:00,33.8,27.7,29.56,SSE,150,0.0,1.0,78,0.00,,,0.01,HR-IXPWINDi_r2_v1.2.,2013-02-18 20:36:00,
2013-02-18 14:41:00,33.8,27.7,29.56,SSE,150,1.0,4.0,78,0.00,,,0.01,HR-IXPWINDi_r2_v1.2.,2013-02-18 20:41:00,
2013-02-18 14:46:00,33.9,27.4,29.56,SSE,150,0.0,4.0,77,0.00,,,0.01,HR-IXPWINDi_r2_v1.2.,2013-02-18 20:46:00,
2013-02-18 14:51:00,33.9,27.1,29.56,SSE,157,2.0,6.0,76,0.00,,,0.01,HR-IXPWINDi_r2_v1.2.,2013-02-18 20:51:00,
2013-02-18 14:56:00,33.9,26.8,29.56,SSE,152,2.0,6.0,75,0.00,,,0.01,HR-IXPWINDi_r2_v1.2.,2013-02-18 20:56:00,
2013-02-18 15:01:00,33.9,26.8,29.56,SSE,157,2.0,6.0,75,0.00,,,0.01,HR-IXPWINDi_r2_v1.2.,2013-02-18 21:01:00,
2013-02-18 15:07:00,33.8,27.7,29.56,SSE,157,0.0,4.0,78,0.00,,,0.01,HR-IXPWINDi_r2_v1.2.,2013-02-18 21:07:00,
2013-02-18 15:12:00,33.6,27.5,29.56,SSE,157,0.0,2.0,78,0.00,,,0.01,HR-IXPWINDi_r2_v1.2.,2013-02-18 21:12:00,
2013-02-18 15:17:00,33.4,27.0,29.57,SSE,157,1.0,2.0,77,0.00,,,0.01,HR-IXPWINDi_r2_v1.2.,2013-02-18 21:17:00,
2013-02-18 15:22:00,33.2,27.1,29.57,SSE,157,1.0,2.0,78,0.00,,,0.01,HR-IXPWINDi_r2_v1.2.,2013-02-18 21:22:00,
2013-02-18 15:28:00,33.1,27.0,29.57,SSE,157,0.0,2.0,78,0.00,,,0.01,HR-IXPWINDi_r2_v1.2.,2013-02-18 21:28:00,
2013-02-18 15:33:00,33.0,26.9,29.57,SSE,157,0.0,2.0,78,0.00,,,0.01,HR-IXPWINDi_r2_v1.2.,2013-02-18 21:33:00,
2013-02-18 15:38:00,33.0,26.9,29.57,SSE,157,1.0,2.0,78,0.00,,,0.01,HR-IXPWINDi_r2_v1.2.,2013-02-18 21:38:00,
2013-02-18 15:43:00,33.0,26.6,29.57,SSE,167,5.0,7.0,77,0.00,,,0.01,HR-IXPWINDi_r2_v1.2.,2013-02-18 21:43:00,
2013-02-18 15:48:00,33.0,27.2,29.57,SSE,151,1.0,7.0,79,0.00,,,0.01,HR-IXPWINDi_r2_v1.2.,2013-02-18 21:48:00,
2013-02-18 15:54:00,32.8,26.7,29.57,SSE,151,0.0,7.0,78,0.00,,,0.01,HR-IXPWINDi_r2_v1.2.,2013-02-18 21:54:00,
2013-02-18 15:59:00,32.6,27.1,29.58,SSE,151,0.0,2.0,80,0.00,,,0.01,HR-IXPWINDi_r2_v1.2.,2013-02-18 21:59:00,
2013-02-18 16:04:00,32.5,27.3,29.58,SSE,151,0.0,2.0,81,0.00,,,0.01,HR-IXPWINDi_r2_v1.2.,2013-02-18 22:04:00,
2013-02-18 16:09:00,32.4,27.5,29.58,SSE,151,1.0,2.0,82,0.00,,,0.01,HR-IXPWINDi_r2_v1.2.,2013-02-18 22:09:00,
2013-02-18 16:14:00,32.1,27.5,29.58,SSE,151,1.0,2.0,83,0.00,,,0.01,HR-IXPWINDi_r2_v1.2.,2013-02-18 22:14:00,
2013-02-18 16:19:00,31.9,27.9,29.58,SSE,151,0.0,2.0,85,0.00,,,0.01,HR-IXPWINDi_r2_v1.2.,2013-02-18 22:19:00,
2013-02-18 16:24:00,31.5,27.8,29.58,SSE,151,0.0,2.0,86,0.00,,,0.01,HR-IXPWINDi_r2_v1.2.,2013-02-18 22:24:00,
2013-02-18 16:29:00,31.3,28.1,29.58,SSE,151,0.0,2.0,88,0.00,,,0.01,HR-IXPWINDi_r2_v1.2.,2013-02-18 22:29:00,
2013-02-18 16:34:00,31.1,27.9,29.58,SSE,151,0.0,1.0,88,0.00,,,0.01,HR-IXPWINDi_r2_v1.2.,2013-02-18 22:34:00,
2013-02-18 16:40:00,30.9,28.0,29.58,SSE,152,0.0,1.0,89,0.00,,,0.01,HR-IXPWINDi_r2_v1.2.,2013-02-18 22:40:00,
2013-02-18 16:45:00,30.7,28.1,29.58,SSE,151,0.0,0.0,90,0.00,,,0.01,HR-IXPWINDi_r2_v1.2.,2013-02-18 22:45:00,
2013-02-18 16:50:00,30.6,28.0,29.58,SSE,151,0.0,1.0,90,0.00,,,0.01,HR-IXPWINDi_r2_v1.2.,2013-02-18 22:50:00,
2013-02-18 16:56:00,30.5,28.2,29.58,SSE,152,0.0,1.0,91,0.00,,,0.01,HR-IXPWINDi_r2_v1.2.,2013-02-18 22:56:00,
2013-02-18 17:01:00,30.4,28.1,29.58,SSE,151,0.0,0.0,91,0.00,,,0.01,HR-IXPWINDi_r2_v1.2.,2013-02-18 23:01:00,
2013-02-18 17:06:00,30.3,28.2,29.58,SSE,151,0.0,0.0,92,0.00,,,0.01,HR-IXPWINDi_r2_v1.2.,2013-02-18 23:06:00,
2013-02-18 17:11:00,30.3,28.5,29.58,SSE,151,0.0,0.0,93,0.00,,,0.01,HR-IXPWINDi_r2_v1.2.,2013-02-18 23:11:00,
2013-02-18 17:17:00,30.2,28.4,29.58,SSE,152,0.0,0.0,93,0.00,,,0.01,HR-IXPWINDi_r2_v1.2.,2013-02-18 23:17:00,
2013-02-18 17:22:00,30.2,28.4,29.58,SSE,151,0.0,0.0,93,0.00,,,0.01,HR-IXPWINDi_r2_v1.2.,2013-02-18 23:22:00,
2013-02-18 17:27:00,30.2,28.7,29.58,SSE,151,0.0,0.0,94,0.00,,,0.01,HR-IXPWINDi_r2_v1.2.,2013-02-18 23:27:00,
2013-02-18 17:32:00,30.2,28.7,29.58,SSE,151,0.0,0.0,94,0.00,,,0.01,HR-IXPWINDi_r2_v1.2.,2013-02-18 23:32:00,
2013-02-18 17:37:00,30.2,28.7,29.58,SSE,151,0.0,0.0,94,0.00,,,0.01,HR-IXPWINDi_r2_v1.2.,2013-02-18 23:37:00,
2013-02-18 17:42:00,30.2,28.7,29.58,SSE,151,0.0,0.0,94,0.00,,,0.01,HR-IXPWINDi_r2_v1.2.,2013-02-18 23:42:00,
2013-02-18 17:47:00,30.1,28.8,29.58,SSE,152,0.0,0.0,95,0.00,,,0.01,HR-IXPWINDi_r2_v1.2.,2013-02-18 23:47:00,
2013-02-18 17:52:00,30.1,28.6,29.58,SSE,151,0.0,0.0,94,0.00,,,0.01,HR-IXPWINDi_r2_v1.2.,2013-02-18 23:52:00,
2013-02-18 17:57:00,30.0,28.7,29.58,SSE,151,0.0,0.0,95,0.00,,,0.01,HR-IXPWINDi_r2_v1.2.,2013-02-18 23:57:00,
2013-02-18 18:02:00,29.9,28.6,29.58,SSE,151,0.0,0.0,95,0.00,,,0.01,HR-IXPWINDi_r2_v1.2.,2013-02-19 00:02:00,
2013-02-18 18:07:00,29.9,28.6,29.57,SSE,151,0.0,0.0,95,0.00,,,0.01,HR-IXPWINDi_r2_v1.2.,2013-02-19 00:07:00,
2013-02-18 18:12:00,29.8,28.5,29.57,SSE,151,0.0,0.0,95,0.00,,,0.01,HR-IXPWINDi_r2_v1.2.,2013-02-19 00:12:00,
2013-02-18 18:18:00,29.7,28.4,29.57,SSE,151,0.0,0.0,95,0.00,,,0.01,HR-IXPWINDi_r2_v1.2.,2013-02-19 00:18:00,
2013-02-18 18:23:00,29.6,28.3,29.57,SSE,151,0.0,0.0,95,0.00,,,0.01,HR-IXPWINDi_r2_v1.2.,2013-02-19 00:23:00,
2013-02-18 18:28:00,29.5,28.2,29.57,SSE,151,0.0,0.0,95,0.00,,,0.01,HR-IXPWINDi_r2_v1.2.,2013-02-19 00:28:00,
2013-02-18 18:33:00,29.4,28.1,29.57,SSE,151,0.0,0.0,95,0.00,,,0.01,HR-IXPWINDi_r2_v1.2.,2013-02-19 00:33:00,
2013-02-18 18:39:00,29.4,28.1,29.57,SSE,151,0.0,0.0,95,0.00,,,0.01,HR-IXPWINDi_r2_v1.2.,2013-02-19 00:39:00,
2013-02-18 18:44:00,29.6,28.6,29.56,SSE,151,0.0,0.0,96,0.00,,,0.01,HR-IXPWINDi_r2_v1.2.,2013-02-19 00:44:00,
2013-02-18 18:49:00,29.7,28.7,29.57,SSE,151,0.0,0.0,96,0.00,,,0.01,HR-IXPWINDi_r2_v1.2.,2013-02-19 00:49:00,
2013-02-18 18:54:00,29.6,28.3,29.57,SSE,151,0.0,0.0,95,0.00,,,0.01,HR-IXPWINDi_r2_v1.2.,2013-02-19 00:54:00,
2013-02-18 18:59:00,29.5,28.5,29.57,SSE,151,0.0,0.0,96,0.00,,,0.01,HR-IXPWINDi_r2_v1.2.,2013-02-19 00:59:00,
2013-02-18 19:05:00,29.6,28.6,29.56,SSE,151,0.0,0.0,96,0.00,,,0.01,HR-IXPWINDi_r2_v1.2.,2013-02-19 01:05:00,
2013-02-18 19:10:00,29.9,29.1,29.56,SSE,151,0.0,0.0,97,0.00,,,0.01,HR-IXPWINDi_r2_v1.2.,2013-02-19 01:10:00,
2013-02-18 19:15:00,29.8,28.8,29.57,SSE,151,0.0,0.0,96,0.00,,,0.01,HR-IXPWINDi_r2_v1.2.,2013-02-19 01:15:00,
2013-02-18 19:20:00,29.6,28.6,29.56,SSE,151,0.0,0.0,96,0.00,,,0.01,HR-IXPWINDi_r2_v1.2.,2013-02-19 01:20:00,
2013-02-18 19:25:00,29.6,28.3,29.56,SSE,151,0.0,0.0,95,0.00,,,0.01,HR-IXPWINDi_r2_v1.2.,2013-02-19 01:25:00,
2013-02-18 19:31:00,29.4,28.4,29.56,SSE,151,0.0,0.0,96,0.00,,,0.01,HR-IXPWINDi_r2_v1.2.,2013-02-19 01:31:00,
2013-02-18 19:36:00,29.4,28.4,29.56,SSE,151,0.0,0.0,96,0.00,,,0.01,HR-IXPWINDi_r2_v1.2.,2013-02-19 01:36:00,
2013-02-18 19:41:00,29.4,28.4,29.56,SSE,151,0.0,0.0,96,0.00,,,0.01,HR-IXPWINDi_r2_v1.2.,2013-02-19 01:41:00,
2013-02-18 19:46:00,29.4,28.4,29.56,SSE,151,0.0,0.0,96,0.00,,,0.01,HR-IXPWINDi_r2_v1.2.,2013-02-19 01:46:00,
2013-02-18 19:51:00,29.4,28.4,29.56,SSE,151,0.0,0.0,96,0.00,,,0.01,HR-IXPWINDi_r2_v1.2.,2013-02-19 01:51:00,
2013-02-18 19:56:00,29.3,28.3,29.56,SSE,151,0.0,0.0,96,0.00,,,0.01,HR-IXPWINDi_r2_v1.2.,2013-02-19 01:56:00,
2013-02-18 20:01:00,29.3,28.3,29.56,SSE,151,0.0,0.0,96,0.00,,,0.01,HR-IXPWINDi_r2_v1.2.,2013-02-19 02:01:00,
2013-02-18 20:06:00,29.2,28.2,29.56,SSE,151,0.0,0.0,96,0.00,,,0.01,HR-IXPWINDi_r2_v1.2.,2013-02-19 02:06:00,
2013-02-18 20:12:00,29.1,28.1,29.55,SSE,152,0.0,0.0,96,0.00,,,0.01,HR-IXPWINDi_r2_v1.2.,2013-02-19 02:12:00,
2013-02-18 20:17:00,29.0,28.0,29.54,SSE,152,0.0,0.0,96,0.00,,,0.01,HR-IXPWINDi_r2_v1.2.,2013-02-19 02:17:00,
2013-02-18 20:22:00,28.9,27.9,29.54,SSE,151,0.0,0.0,96,0.00,,,0.01,HR-IXPWINDi_r2_v1.2.,2013-02-19 02:22:00,
2013-02-18 20:27:00,28.9,27.9,29.54,SSE,151,0.0,0.0,96,0.00,,,0.01,HR-IXPWINDi_r2_v1.2.,2013-02-19 02:27:00,
2013-02-18 20:32:00,28.9,27.9,29.54,SSE,152,0.0,0.0,96,0.00,,,0.01,HR-IXPWINDi_r2_v1.2.,2013-02-19 02:32:00,
2013-02-18 20:37:00,28.8,27.8,29.54,SSE,151,0.0,1.0,96,0.00,,,0.01,HR-IXPWINDi_r2_v1.2.,2013-02-19 02:37:00,
2013-02-18 20:42:00,28.7,27.7,29.54,WSW,250,0.0,2.0,96,0.00,,,0.01,HR-IXPWINDi_r2_v1.2.,2013-02-19 02:42:00,
2013-02-18 20:48:00,28.6,27.6,29.53,WSW,250,0.0,2.0,96,0.00,,,0.01,HR-IXPWINDi_r2_v1.2.,2013-02-19 02:48:00,
2013-02-18 20:53:00,28.5,27.2,29.53,WSW,250,0.0,0.0,95,0.00,,,0.01,HR-IXPWINDi_r2_v1.2.,2013-02-19 02:53:00,
2013-02-18 20:58:00,28.4,27.4,29.53,WSW,250,0.0,1.0,96,0.00,,,0.01,HR-IXPWINDi_r2_v1.2.,2013-02-19 02:58:00,
2013-02-18 21:03:00,28.3,27.0,29.53,WSW,250,0.0,1.0,95,0.00,,,0.01,HR-IXPWINDi_r2_v1.2.,2013-02-19 03:03:00,
2013-02-18 21:09:00,28.2,27.2,29.53,WSW,250,0.0,1.0,96,0.00,,,0.01,HR-IXPWINDi_r2_v1.2.,2013-02-19 03:09:00,
2013-02-18 21:14:00,28.1,27.1,29.52,WSW,249,0.0,1.0,96,0.00,,,0.01,HR-IXPWINDi_r2_v1.2.,2013-02-19 03:14:00,
2013-02-18 21:19:00,28.1,27.1,29.52,ESE,108,0.0,2.0,96,0.00,,,0.01,HR-IXPWINDi_r2_v1.2.,2013-02-19 03:19:00,
2013-02-18 21:24:00,28.1,27.1,29.52,SW,217,0.0,2.0,96,0.00,,,0.01,HR-IXPWINDi_r2_v1.2.,2013-02-19 03:24:00,
2013-02-18 21:29:00,28.2,27.2,29.52,SW,217,0.0,1.0,96,0.00,,,0.01,HR-IXPWINDi_r2_v1.2.,2013-02-19 03:29:00,
2013-02-18 21:34:00,28.2,27.2,29.52,SW,217,0.0,1.0,96,0.00,,,0.01,HR-IXPWINDi_r2_v1.2.,2013-02-19 03:34:00,
2013-02-18 21:39:00,28.2,27.2,29.52,SW,217,0.0,1.0,96,0.00,,,0.01,HR-IXPWINDi_r2_v1.2.,2013-02-19 03:39:00,
2013-02-18 21:44:00,28.3,27.3,29.52,SW,217,0.0,0.0,96,0.00,,,0.01,HR-IXPWINDi_r2_v1.2.,2013-02-19 03:44:00,
2013-02-18 21:50:00,28.3,27.3,29.52,SW,227,0.0,1.0,96,0.00,,,0.01,HR-IXPWINDi_r2_v1.2.,2013-02-19 03:50:00,
2013-02-18 21:55:00,28.2,27.2,29.52,NW,304,0.0,2.0,96,0.00,,,0.01,HR-IXPWINDi_r2_v1.2.,2013-02-19 03:55:00,
2013-02-18 22:00:00,28.2,27.2,29.52,ENE,59,0.0,2.0,96,0.00,,,0.01,HR-IXPWINDi_r2_v1.2.,2013-02-19 04:00:00,
2013-02-18 22:05:00,28.3,27.3,29.52,NNE,17,0.0,3.0,96,0.00,,,0.01,HR-IXPWINDi_r2_v1.2.,2013-02-19 04:05:00,
2013-02-18 22:10:00,28.2,27.2,29.51,NNW,339,1.0,3.0,96,0.00,,,0.01,HR-IXPWINDi_r2_v1.2.,2013-02-19 04:10:00,
2013-02-18 22:16:00,28.2,26.9,29.51,NW,317,1.0,3.0,95,0.00,,,0.01,HR-IXPWINDi_r2_v1.2.,2013-02-19 04:16:00,
2013-02-18 22:21:00,28.2,26.9,29.51,North,11,0.0,3.0,95,0.00,,,0.01,HR-IXPWINDi_r2_v1.2.,2013-02-19 04:21:00,
2013-02-18 22:26:00,28.1,26.8,29.51,NNW,338,0.0,2.0,95,0.00,,,0.01,HR-IXPWINDi_r2_v1.2.,2013-02-19 04:26:00,
2013-02-18 22:31:00,28.0,26.7,29.51,West,279,0.0,2.0,95,0.00,,,0.01,HR-IXPWINDi_r2_v1.2.,2013-02-19 04:31:00,
2013-02-18 22:37:00,27.9,26.6,29.51,East,87,2.0,2.0,95,0.00,,,0.01,HR-IXPWINDi_r2_v1.2.,2013-02-19 04:37:00,
2013-02-18 22:42:00,27.7,26.2,29.51,NE,46,0.0,2.0,94,0.00,,,0.01,HR-IXPWINDi_r2_v1.2.,2013-02-19 04:42:00,
2013-02-18 22:47:00,27.6,26.1,29.51,SE,140,0.0,2.0,94,0.00,,,0.01,HR-IXPWINDi_r2_v1.2.,2013-02-19 04:47:00,
2013-02-18 22:52:00,27.5,26.0,29.51,SE,130,0.0,2.0,94,0.00,,,0.01,HR-IXPWINDi_r2_v1.2.,2013-02-19 04:52:00,
2013-02-18 22:57:00,27.4,25.9,29.51,SE,145,0.0,1.0,94,0.00,,,0.01,HR-IXPWINDi_r2_v1.2.,2013-02-19 04:57:00,
2013-02-18 23:00:00,27.3,25.8,29.51,SSW,203,1.0,4.0,94,0.00,,,0.01,HR-IXPWINDi_r2_v1.2.,2013-02-19 05:00:00,
2013-02-18 23:05:00,27.1,25.6,29.51,ENE,60,1.0,4.0,94,0.00,,,0.01,HR-IXPWINDi_r2_v1.2.,2013-02-19 05:05:00,
2013-02-18 23:10:00,26.8,25.3,29.51,WNW,294,0.0,4.0,94,0.00,,,0.01,HR-IXPWINDi_r2_v1.2.,2013-02-19 05:10:00,
2013-02-18 23:15:00,26.6,25.1,29.52,NW,319,1.0,4.0,94,0.00,,,0.01,HR-IXPWINDi_r2_v1.2.,2013-02-19 05:15:00,
2013-02-18 23:20:00,26.5,25.0,29.52,NNE,30,1.0,4.0,94,0.00,,,0.01,HR-IXPWINDi_r2_v1.2.,2013-02-19 05:20:00,
2013-02-18 23:25:00,26.3,24.8,29.52,WNW,298,1.0,4.0,94,0.00,,,0.01,HR-IXPWINDi_r2_v1.2.,2013-02-19 05:25:00,
2013-02-18 23:31:00,26.1,24.6,29.51,East,92,1.0,4.0,94,0.00,,,0.01,HR-IXPWINDi_r2_v1.2.,2013-02-19 05:31:00,
2013-02-18 23:36:00,26.0,24.5,29.51,SSE,164,1.0,4.0,94,0.00,,,0.01,HR-IXPWINDi_r2_v1.2.,2013-02-19 05:36:00,
2013-02-18 23:41:00,25.9,24.4,29.51,West,263,0.0,4.0,94,0.00,,,0.01,HR-IXPWINDi_r2_v1.2.,2013-02-19 05:41:00,
2013-02-18 23:46:00,25.7,24.2,29.51,NW,315,1.0,5.0,94,0.00,,,0.01,HR-IXPWINDi_r2_v1.2.,2013-02-19 05:46:00,
2013-02-18 23:51:00,25.6,24.1,29.52,North,355,2.0,5.0,94,0.00,,,0.01,HR-IXPWINDi_r2_v1.2.,2013-02-19 05:51:00,
2013-02-18 23:57:00,25.4,23.9,29.51,West,270,0.0,6.0,94,0.00,,,0.00,HR-IXPWINDi_r2_v1.2.,2013-02-19 05:57:00,